Location: Unspecified
(0.0000°N, 0.0000°E)
Time: 23:30:11
(UTC+01:00)

Ariane H10-3 - Visible Passes

Search period start: 12 February 2016 00:00
Search period end: 22 February 2016 00:00
Orbit: 282 x 20621 km, 7.2° (Epoch: 11 February)

Date Brightness Start Highest point End Pass type
(mag) Time Alt. Az. Time Alt. Az. Time Alt. Az.
12 Feb 8.2 05:50:27 20° W 07:53:38 81° N 10:51:39 10° E visible
12 Feb 8.7 23:56:58 11° E 23:56:58 11° E 23:58:21 10° E visible
13 Feb 8.2 05:59:08 18° W 08:49:06 81° N 11:01:09 10° E visible
14 Feb 8.7 00:05:35 13° E 00:05:35 13° E 00:10:52 10° E visible
14 Feb 8.3 06:07:45 16° W 09:31:02 81° N 11:10:32 10° E visible
15 Feb 8.6 00:14:09 16° E 00:14:09 16° E 00:23:57 10° E visible
15 Feb 8.3 06:16:18 13° W 09:58:24 81° N 11:19:46 10° E visible
16 Feb 8.6 00:22:38 19° E 00:22:38 19° E 00:37:45 10° E visible
16 Feb 8.4 06:24:46 11° W 10:19:49 81° N 11:28:55 10° E visible
17 Feb 8.5 00:31:03 21° E 00:31:03 21° E 00:52:30 10° E visible
17 Feb 8.4 06:33:40 10° W 10:37:58 81° N 11:37:57 10° E visible
18 Feb 8.5 00:39:23 24° E 00:39:23 24° E 01:08:37 10° E visible
18 Feb 8.5 06:43:07 10° W 10:54:02 82° N 11:46:51 10° E visible
19 Feb 8.4 00:47:39 27° E 00:47:39 27° E 01:26:40 10° E visible
20 Feb 8.4 00:55:50 30° E 00:55:50 30° E 01:47:44 10° E visible
21 Feb 8.3 01:03:57 32° E 01:03:57 32° E 02:13:56 10° E visible
